Kerkyra, Greece

10:45 AM EEST on March 28, 2017 (GMT +0300)
Ioannis Kapodistrias

Weather History for LGKR - March, 2013

Change the Weather History Date:

Thursday, March 28, 2013

  Actual Average Record
Temperature  
Mean Temperature 58 °F -  
Max Temperature 63 °F 67 °F 69 °F (2012)
Min Temperature 53 °F 49 °F 39 °F (2009)
Degree Days  
Heating Degree Days 7    
Growing Degree Days 8 (Base 50)    
Moisture  
Dew Point 53 °F    
Average Humidity 87    
Maximum Humidity 94    
Minimum Humidity 72    
Precipitation  
Precipitation 0.00 in 0.08 in - ()
Sea Level Pressure  
Sea Level Pressure 29.92 in    
Wind  
Wind Speed 3 mph ()    
Max Wind Speed 14 mph    
Max Gust Speed -    
Visibility 6.2 miles    
Events Rain    
Averages and records for this station are not official NWS values.
T = Trace of Precipitation, MM = Missing Value Source: Averaged Metar Reports

Daily Weather History Graph

Daily Weather History Graph

Search for Another Location

Airport or City:

Trip Planner

Search our weather history database for the weather conditions in past years. The results will help you decide how hot, cold, wet, or windy it might be!

Date:

Astronomy

Mar. 28, 2013 Rise Set
Actual Time 6:30 AM EET 7:00 PM EET
Civil Twilight 6:03 AM EET 7:27 PM EET
Nautical Twilight 5:32 AM EET 7:59 PM EET
Astronomical Twilight 4:59 AM EET 8:31 PM EET
Moon 8:30 PM EET 6:47 AM EET
Length of Visible Light 13h 23m
Length of Day
12h 29m
Full, 99% of the Moon is Illuminated
Mar 28
Full
Apr 3
Last Quarter
Apr 10
New
Apr 18
First Quarter
Apr 25
Full

Hourly Weather History & Observations

Time (EET) Temp. Dew Point Humidity Pressure Visibility Wind Dir Wind Speed Gust Speed Precip Events Conditions
12:20 AM 55.4 °F 51.8 °F 88% 29.83 in 6.2 mi Calm Calm - N/A Rain Light Rain
12:50 AM 55.4 °F 51.8 °F 88% 29.86 in 6.2 mi Calm Calm - N/A Rain Light Rain
1:20 AM 55.4 °F 51.8 °F 88% 29.86 in 6.2 mi Calm Calm - N/A Rain Light Rain
1:50 AM 55.4 °F 53.6 °F 94% 29.86 in 6.2 mi Calm Calm - N/A Rain Light Rain
2:00 AM 55 °F 53 °F 91% 29.87 in 6 mi Calm Calm - - Rain Light Rain
2:20 AM 55.4 °F 53.6 °F 94% 29.86 in 6.2 mi Calm Calm - N/A Rain Light Rain
2:50 AM 53.6 °F 51.8 °F 94% 29.86 in 6.2 mi Calm Calm - N/A Rain Light Rain
3:20 AM 53.6 °F 51.8 °F 94% 29.86 in 6.2 mi Calm Calm - N/A Rain Light Rain
3:50 AM 53.6 °F 51.8 °F 94% 29.86 in 5.6 mi NE 3.5 mph - N/A Rain Light Rain
4:20 AM 53.6 °F 51.8 °F 94% 29.86 in 6.2 mi NE 4.6 mph - N/A Rain Light Rain
4:50 AM 53.6 °F 50.0 °F 88% 29.86 in 6.2 mi NE 3.5 mph - N/A Rain Light Rain
5:20 AM 53.6 °F 50.0 °F 88% 29.86 in 6.2 mi Calm Calm - N/A Rain Light Rain
5:50 AM 53.6 °F 50.0 °F 88% 29.86 in 6.2 mi Calm Calm - N/A Rain Light Rain
6:20 AM 53.6 °F 50.0 °F 88% 29.86 in 6.2 mi Calm Calm - N/A Rain Light Rain
6:50 AM 53.6 °F 51.8 °F 94% 29.86 in 6.2 mi Calm Calm - N/A Rain Light Rain
7:20 AM 53.6 °F 51.8 °F 94% 29.86 in 6.2 mi Calm Calm - N/A Rain Light Rain
7:50 AM 55.4 °F 51.8 °F 88% 29.86 in 6.2 mi East 8.1 mph - N/A Rain Light Rain
8:00 AM 55 °F 52 °F 86% 29.88 in 6 mi East 6.9 mph - - Rain Light Rain
8:20 AM 55.4 °F 51.8 °F 88% 29.86 in 6.2 mi SE 10.4 mph - N/A   Overcast
8:50 AM 55.4 °F 51.8 °F 88% 29.89 in 6.2 mi SE 10.4 mph - N/A   Overcast
9:20 AM 57.2 °F 51.8 °F 82% 29.89 in 6.2 mi SE 10.4 mph - N/A   Overcast
9:50 AM 57.2 °F 51.8 °F 82% 29.92 in 6.2 mi SE 10.4 mph - N/A   Overcast
10:20 AM 57.2 °F 51.8 °F 82% 29.92 in 6.2 mi SE 11.5 mph - N/A Rain Light Rain
10:50 AM 57.2 °F 53.6 °F 88% 29.95 in 6.2 mi SE 13.8 mph - N/A Rain Light Rain
11:20 AM 57.2 °F 53.6 °F 88% 29.95 in 6.2 mi SE 13.8 mph - N/A Rain Light Rain
11:50 AM 57.2 °F 53.6 °F 88% 29.95 in 6.2 mi ESE 13.8 mph - N/A   Mostly Cloudy
12:20 PM 57.2 °F 53.6 °F 88% 29.95 in 6.2 mi East 8.1 mph - N/A   Mostly Cloudy
12:50 PM 59.0 °F 53.6 °F 82% 29.95 in 6.2 mi East 9.2 mph - N/A   Mostly Cloudy
1:20 PM 59.0 °F 53.6 °F 82% 29.95 in 6.2 mi ESE 9.2 mph - N/A   Mostly Cloudy
1:50 PM 59.0 °F 55.4 °F 88% 29.95 in 6.2 mi ESE 9.2 mph - N/A   Mostly Cloudy
2:00 PM 60 °F 54 °F 76% 29.97 in 6 mi ESE 9.2 mph - -   Partly Cloudy
2:20 PM 59.0 °F 55.4 °F 88% 29.95 in 6.2 mi ESE 9.2 mph - N/A   Mostly Cloudy
2:50 PM 64.4 °F 55.4 °F 73% 29.95 in 6.2 mi SE 5.8 mph - N/A   Mostly Cloudy
3:20 PM 64.4 °F 55.4 °F 73% 29.95 in 6.2 mi SE 5.8 mph - N/A   Mostly Cloudy
3:50 PM 62.6 °F 55.4 °F 77% 29.95 in 6.2 mi ESE 6.9 mph - N/A   Mostly Cloudy
4:20 PM 62.6 °F 55.4 °F 77% 29.95 in 6.2 mi ESE 8.1 mph - N/A   Mostly Cloudy
4:50 PM 62.6 °F 53.6 °F 72% 29.95 in 6.2 mi SE 6.9 mph - N/A   Mostly Cloudy
5:20 PM 62.6 °F 53.6 °F 72% 29.95 in 6.2 mi SE 5.8 mph - N/A   Mostly Cloudy
5:50 PM 60.8 °F 55.4 °F 82% 29.95 in 6.2 mi East 5.8 mph - N/A   Mostly Cloudy
6:20 PM 60.8 °F 55.4 °F 82% 29.95 in 6.2 mi ESE 5.8 mph - N/A   Mostly Cloudy
6:50 PM 60.8 °F 55.4 °F 82% 29.95 in 6.2 mi Variable 3.5 mph - N/A   Mostly Cloudy
7:20 PM 59.0 °F 53.6 °F 82% 29.95 in 6.2 mi Variable 3.5 mph - N/A   Mostly Cloudy
7:50 PM 59.0 °F 55.4 °F 88% 29.95 in 6.2 mi Calm Calm - N/A   Mostly Cloudy
8:00 PM 58 °F 56 °F 90% 29.96 in 6 mi Calm Calm - -   Scattered Clouds
8:20 PM 59.0 °F 55.4 °F 88% 29.95 in 6.2 mi Calm Calm - N/A   Mostly Cloudy
8:50 PM 57.2 °F 55.4 °F 94% 29.95 in 6.2 mi Calm Calm - N/A   Mostly Cloudy
9:20 PM 57.2 °F 55.4 °F 94% 29.95 in 6.2 mi Calm Calm - N/A   Mostly Cloudy
9:50 PM 57.2 °F 55.4 °F 94% 29.98 in 6.2 mi Calm Calm - N/A   Mostly Cloudy
10:20 PM 57.2 °F 55.4 °F 94% 29.98 in 6.2 mi Calm Calm - N/A   Mostly Cloudy
10:50 PM 55.4 °F 53.6 °F 94% 29.98 in 6.2 mi Calm Calm - N/A   Mostly Cloudy
11:20 PM 55.4 °F 53.6 °F 94% 29.98 in 6.2 mi Calm Calm - N/A   Mostly Cloudy
11:50 PM 55.4 °F 53.6 °F 94% 29.98 in 6.2 mi Calm Calm - N/A   Mostly Cloudy